Location: Betpouey
(42.8833°N, 0.0333°E)
Time: 22:29:29
(UTC+00:00)

Cosmos 1500 - Pass Details

Date: 01 December 2020
Orbit: 498 x 518 km, 82.5° (Epoch: 18 January)

Event Time Altitude Azimuth Distance (km) Brightness Sun altitude
Rises 18:36:51 0° 346° (NNW) 2,637 6.9 -23.3°
Reaches altitude 10° 18:39:02 10° 340° (NNW) 1,748 6.0 -23.6°
Maximum altitude 18:42:43 47° 266° (W) 691 4.1 -24.3°
Drops below altitude 10° 18:46:24 10° 192° (SSW) 1,742 6.1 -25.0°
Sets 18:48:34 0° 187° (S) 2,626 7.0 -25.4°
